Flag for United Kingdom Weather past 2 weeks in West Bromwich, England, United Kingdom

Now
70 °F

Sunny.


Feels Like: 70 °F
Forecast: 54 / 72 °F
Wind: 6 mph from Northwest

Location: Birmingham / Airport

Current Time: Jul 28, 2014 at 9:58:55 PM

Latest Report: Jul 28, 2014 at 9:20 PM


Visibility: 10 mi

Pressure: 30.04 "Hg

Humidity: 53%

Dew point: 52 °F

Location of West BromwichLocation

Historic Weather in West Bromwich — Graph

°F

West Bromwich temperature yesterday

Maximum temperature yesterday: 73 °F (at 4:50 PM)
Minimum temperature yesterday: 61 °F (at 5:20 AM)
Average temperature yesterday: 67 °F

Past Weeks' High & Low Weather Summary

 TemperatureHumidityPressure
High82 °F (Jul 24, 3:50 PM)100% (Jul 17, 1:20 AM)30.30 "Hg (Jul 17, 1:20 AM)
Low54 °F (Jul 14, 2:50 AM)37% (Jul 24, 3:50 PM)29.74 "Hg (Jul 19, 1:20 PM)
Average68 °F69%30.03 "Hg
* Reported Jul 13 8:20 PM — Jul 28 8:50 PM, West Bromwich, Weather by CustomWeather, © 2014

Note: Actual official high and low records may vary slightly from our data, if they occured in-between our weather recording intervals... More about our weather records

Advertising

West Bromwich weather history for previous 24 hours

 ConditionsComfort  
Time TempWeatherWind HumidityBarometerVisibility
8:50 PM
Jul 28
70 °FSunny.3 mph53%30.04 "Hg10 mi
8:20 PM70 °FSunny.3 mph57%30.04 "Hg10 mi
7:50 PM72 °FMild.6 mph53%30.04 "HgN/A
7:20 PM72 °FPassing clouds.6 mph50%30.01 "HgN/A
6:50 PM73 °FPassing clouds.9 mph41%30.01 "HgN/A
6:20 PM75 °FPassing clouds.8 mph39%30.01 "HgN/A
5:50 PM73 °FPassing clouds.8 mph41%30.01 "HgN/A
5:20 PM73 °FPassing clouds.7 mph41%30.01 "HgN/A
4:50 PM73 °FPassing clouds.8 mph41%30.01 "HgN/A
4:20 PM73 °FPassing clouds.8 mph44%30.01 "HgN/A
3:50 PM73 °FSunny.9 mph44%30.01 "Hg10 mi
3:20 PM73 °FPassing clouds.7 mph44%30.01 "HgN/A
2:50 PM72 °FSunny.7 mph47%30.01 "Hg10 mi
2:20 PM73 °FSunny.6 mph41%30.01 "Hg10 mi
1:50 PM72 °FScattered clouds.7 mph44%30.04 "HgN/A
1:20 PM72 °FScattered clouds.7 mph47%30.04 "HgN/A
12:50 PM72 °FPassing clouds.3 mph47%30.04 "HgN/A
12:20 PM70 °FPassing clouds.5 mph53%30.04 "HgN/A
11:50 AM68 °FPassing clouds.6 mph56%30.04 "HgN/A
11:20 AM68 °FPassing clouds.8 mph56%30.04 "HgN/A
10:50 AM64 °FPassing clouds.2 mph68%30.04 "HgN/A
10:20 AM64 °FScattered clouds.3 mph68%30.01 "HgN/A
9:50 AM63 °FPassing clouds.6 mph73%30.01 "HgN/A
9:20 AM63 °FPassing clouds.6 mph73%30.01 "HgN/A
8:50 AM61 °FSunny.7 mph77%30.01 "Hg10 mi
8:20 AM61 °FPassing clouds.6 mph77%30.01 "HgN/A
7:50 AM59 °FSunny.6 mph82%30.01 "Hg10 mi
7:20 AM59 °FSunny.6 mph77%30.01 "Hg10 mi
6:50 AM57 °FSunny.6 mph82%30.01 "Hg10 mi
6:20 AM55 °FSunny.2 mph88%30.01 "Hg10 mi
5:50 AM57 °FClear.3 mph82%30.01 "Hg10 mi
5:20 AM55 °FClear.2 mph88%29.98 "Hg10 mi
4:50 AM57 °FClear.3 mph82%29.98 "Hg10 mi
4:20 AM57 °FClear.3 mph82%30.01 "Hg10 mi
3:20 AM57 °FClear.3 mph82%30.01 "Hg10 mi
2:50 AM59 °FCool.3 mph77%30.01 "HgN/A
2:20 AM59 °FCool.3 mph77%30.01 "HgN/A
1:50 AM59 °FCool.3 mph77%30.01 "HgN/A
1:20 AM59 °FClear.3 mph77%30.01 "Hg10 mi
12:20 AM61 °FClear.7 mph72%30.04 "Hg10 mi
11:50 PM
Jul 27
61 °FClear.9 mph72%30.04 "Hg10 mi
11:20 PM61 °FClear.8 mph72%30.04 "Hg10 mi
10:50 PM63 °FClear.8 mph64%30.04 "Hg10 mi
10:20 PM63 °FClear.7 mph68%30.01 "Hg10 mi
9:50 PM64 °FSunny.9 mph64%30.01 "Hg10 mi
9:20 PM66 °FScattered clouds.12 mph60%30.01 "HgN/A
Weather by CustomWeather, © 2014

See weather overviewHow to use our weather pages